• In Austria
  • List of Countries
  • For 7 days
  • Water Temperature
  • Satellite Maps
  • Weather Map
  • News
  • Weather Widgets
  • user-avatar
    Login

    Hourly Weather Nietoperek

    Today, 23 April, Monday

    Time Temperature Precipitation Wind Pressure Humidity
    00:00 +13°C° 0.1 mm 3 mps 751 mmHg 65%
    01:00 +14°C° 0 mm 2 mps 750 mmHg 65%
    02:00 +13°C° 0.4 mm 3 mps 750 mmHg 69%
    03:00 +12°C° 0.4 mm 3 mps 750 mmHg 73%
    04:00 +12°C° 0.4 mm 3 mps 749 mmHg 77%
    05:00 +13°C° 0.2 mm 3 mps 749 mmHg 78%
    06:00 +14°C° 0.2 mm 3 mps 749 mmHg 78%
    07:00 +16°C° 0.2 mm 3 mps 749 mmHg 79%
    08:00 +18°C° 0 mm 3 mps 749 mmHg 72%
    09:00 +20°C° 0 mm 4 mps 749 mmHg 66%
    10:00 +22°C° 0 mm 4 mps 749 mmHg 60%
    11:00 +23°C° 0.3 mm 4 mps 749 mmHg 57%
    12:00 +23°C° 0.3 mm 5 mps 749 mmHg 55%
    13:00 +23°C° 0.3 mm 5 mps 749 mmHg 53%
    14:00 +23°C° 0.7 mm 5 mps 749 mmHg 57%
    15:00 +22°C° 0.7 mm 5 mps 749 mmHg 61%
    16:00 +21°C° 0.7 mm 5 mps 749 mmHg 65%
    17:00 +19°C° 0.2 mm 4 mps 750 mmHg 70%
    18:00 +18°C° 0.2 mm 4 mps 750 mmHg 75%
    19:00 +16°C° 0.2 mm 3 mps 750 mmHg 79%
    20:00 +15°C° 0 mm 2 mps 751 mmHg 83%
    21:00 +14°C° 0 mm 2 mps 751 mmHg 86%
    22:00 +13°C° 0 mm 1 mps 751 mmHg 90%
    23:00 +12°C° 0 mm 1 mps 752 mmHg 91%

    Tomorrow, 24 April, Tuesday

    Time Temperature Precipitation Wind Pressure Humidity
    00:00 +12°C° 0 mm 2 mps 752 mmHg 91%
    01:00 +10°C° 0 mm 2 mps 752 mmHg 92%
    02:00 +10°C° 0 mm 2 mps 752 mmHg 92%
    03:00 +9°C° 0 mm 2 mps 753 mmHg 92%
    04:00 +9°C° 0 mm 2 mps 753 mmHg 92%
    05:00 +9°C° 0 mm 2 mps 753 mmHg 87%
    06:00 +10°C° 0 mm 3 mps 753 mmHg 83%
    07:00 +11°C° 0 mm 3 mps 753 mmHg 79%
    08:00 +13°C° 0 mm 4 mps 753 mmHg 71%
    09:00 +14°C° 0 mm 4 mps 753 mmHg 63%
    10:00 +16°C° 0 mm 5 mps 753 mmHg 55%
    11:00 +17°C° 0 mm 5 mps 752 mmHg 52%
    12:00 +19°C° 0 mm 5 mps 752 mmHg 49%
    13:00 +20°C° 0 mm 6 mps 752 mmHg 46%
    14:00 +20°C° 0.1 mm 5 mps 751 mmHg 48%
    15:00 +19°C° 0.1 mm 5 mps 751 mmHg 51%
    16:00 +19°C° 0.1 mm 5 mps 751 mmHg 53%
    17:00 +17°C° 0.2 mm 5 mps 751 mmHg 62%
    18:00 +15°C° 0.2 mm 4 mps 751 mmHg 71%
    19:00 +13°C° 0.2 mm 3 mps 751 mmHg 80%
    20:00 +12°C° 0.1 mm 3 mps 751 mmHg 83%
    21:00 +13°C° 0.1 mm 2 mps 752 mmHg 87%
    22:00 +12°C° 0.1 mm 2 mps 752 mmHg 91%
    23:00 +12°C° 0 mm 2 mps 752 mmHg 91%

    Day after tomorrow, 25 April, Wednesday

    Time Temperature Precipitation Wind Pressure Humidity
    00:00 +12°C° 0 mm 2 mps 751 mmHg 92%
    01:00 +10°C° 0 mm 2 mps 751 mmHg 92%
    02:00 +10°C° 0 mm 2 mps 751 mmHg 92%
    03:00 +12°C° 0 mm 2 mps 751 mmHg 91%
    04:00 +12°C° 0 mm 2 mps 750 mmHg 91%
    05:00 +11°C° 0 mm 3 mps 750 mmHg 88%
    06:00 +12°C° 0 mm 3 mps 749 mmHg 85%
    07:00 +12°C° 0 mm 4 mps 749 mmHg 82%
    08:00 +14°C° 0 mm 4 mps 748 mmHg 78%
    09:00 +15°C° 0 mm 5 mps 748 mmHg 74%
    10:00 +16°C° 0 mm 6 mps 748 mmHg 70%
    11:00 +17°C° 0.5 mm 6 mps 747 mmHg 69%
    12:00 +17°C° 0.5 mm 6 mps 747 mmHg 69%
    13:00 +18°C° 0.5 mm 7 mps 747 mmHg 69%
    14:00 +17°C° 0.6 mm 7 mps 747 mmHg 70%
    15:00 +17°C° 0.6 mm 7 mps 747 mmHg 71%
    16:00 +17°C° 0.6 mm 6 mps 747 mmHg 72%
    17:00 +16°C° 0.3 mm 5 mps 747 mmHg 77%
    18:00 +14°C° 0.3 mm 4 mps 747 mmHg 81%
    19:00 +13°C° 0.3 mm 3 mps 748 mmHg 86%
    20:00 +12°C° 0 mm 3 mps 748 mmHg 88%
    21:00 +11°C° 0 mm 3 mps 749 mmHg 90%
    22:00 +10°C° 0 mm 2 mps 749 mmHg 92%
    23:00 +9°C° 0 mm 2 mps 749 mmHg 93%

    26 April, Thursday

    Time Temperature Precipitation Wind Pressure Humidity
    00:00 +8°C° 0 mm 2 mps 750 mmHg 94%
    01:00 +8°C° 0 mm 2 mps 750 mmHg 95%
    02:00 +8°C° 0 mm 1 mps 750 mmHg 96%
    03:00 +8°C° 0 mm 1 mps 750 mmHg 96%
    04:00 +7°C° 0 mm 1 mps 750 mmHg 96%
    05:00 +8°C° 0 mm 2 mps 750 mmHg 92%
    06:00 +9°C° 0 mm 2 mps 750 mmHg 88%
    07:00 +10°C° 0 mm 2 mps 750 mmHg 84%
    08:00 +11°C° 0.2 mm 3 mps 750 mmHg 76%
    09:00 +12°C° 0.2 mm 4 mps 750 mmHg 69%
    10:00 +14°C° 0.2 mm 4 mps 750 mmHg 61%
    11:00 +14°C° 0.4 mm 5 mps 750 mmHg 60%
    12:00 +14°C° 0.4 mm 6 mps 750 mmHg 60%
    13:00 +14°C° 0.4 mm 6 mps 750 mmHg 59%
    14:00 +14°C° 0.2 mm 6 mps 750 mmHg 56%
    15:00 +14°C° 0.2 mm 6 mps 750 mmHg 52%
    16:00 +14°C° 0.2 mm 6 mps 751 mmHg 49%
    17:00 +13°C° 0 mm 5 mps 751 mmHg 54%
    18:00 +12°C° 0 mm 4 mps 751 mmHg 59%
    19:00 +10°C° 0 mm 3 mps 752 mmHg 64%
    20:00 +9°C° 0 mm 3 mps 752 mmHg 68%
    21:00 +8°C° 0 mm 3 mps 753 mmHg 71%
    22:00 +8°C° 0 mm 2 mps 753 mmHg 75%
    23:00 +7°C° 0 mm 2 mps 753 mmHg 77%

    27 April, Friday

    Time Temperature Precipitation Wind Pressure Humidity
    00:00 +7°C° 0 mm 3 mps 753 mmHg 79%
    01:00 +5°C° 0 mm 3 mps 753 mmHg 81%
    02:00 +5°C° 0 mm 3 mps 753 mmHg 84%
    03:00 +4°C° 0 mm 3 mps 754 mmHg 86%
    04:00 +5°C° 0 mm 2 mps 754 mmHg 89%
    05:00 +5°C° 0 mm 3 mps 754 mmHg 84%
    06:00 +7°C° 0 mm 3 mps 754 mmHg 79%
    07:00 +8°C° 0 mm 3 mps 754 mmHg 74%
    08:00 +10°C° 0 mm 3 mps 754 mmHg 65%
    09:00 +11°C° 0 mm 3 mps 755 mmHg 57%
    10:00 +13°C° 0 mm 4 mps 755 mmHg 49%
    11:00 +14°C° 0 mm 3 mps 755 mmHg 45%
    12:00 +16°C° 0 mm 3 mps 754 mmHg 42%
    13:00 +16°C° 0 mm 3 mps 754 mmHg 38%
    14:00 +16°C° 0 mm 3 mps 754 mmHg 39%
    15:00 +16°C° 0 mm 2 mps 754 mmHg 39%
    16:00 +16°C° 0 mm 2 mps 753 mmHg 39%
    17:00 +15°C° 0 mm 1 mps 753 mmHg 44%
    18:00 +14°C° 0 mm 1 mps 753 mmHg 48%
    19:00 +11°C° 0 mm 0 mps 753 mmHg 53%
    20:00 +11°C° 0 mm 1 mps 753 mmHg 55%
    21:00 +11°C° 0 mm 1 mps 753 mmHg 57%
    22:00 +10°C° 0 mm 1 mps 754 mmHg 59%
    23:00 +9°C° 0 mm 1 mps 754 mmHg 62%

    28 April, Saturday

    Time Temperature Precipitation Wind Pressure Humidity
    00:00 +8°C° 0 mm 2 mps 753 mmHg 65%
    01:00 +7°C° 0 mm 2 mps 753 mmHg 67%
    02:00 +7°C° 0 mm 2 mps 753 mmHg 69%
    03:00 +7°C° 0 mm 2 mps 753 mmHg 71%
    04:00 +7°C° 0 mm 3 mps 752 mmHg 73%
    05:00 +8°C° 0 mm 3 mps 752 mmHg 69%
    06:00 +8°C° 0 mm 4 mps 752 mmHg 66%
    07:00 +11°C° 0 mm 4 mps 752 mmHg 62%
    08:00 +12°C° 0 mm 4 mps 752 mmHg 59%
    09:00 +14°C° 0 mm 4 mps 751 mmHg 55%
    10:00 +16°C° 0 mm 5 mps 751 mmHg 52%
    11:00 +17°C° 0 mm 4 mps 751 mmHg 54%
    12:00 +17°C° 0 mm 4 mps 750 mmHg 57%
    13:00 +17°C° 0 mm 4 mps 750 mmHg 59%
    14:00 +18°C° 0 mm 4 mps 749 mmHg 60%
    15:00 +19°C° 0 mm 4 mps 749 mmHg 60%
    16:00 +19°C° 0 mm 4 mps 749 mmHg 60%
    17:00 +18°C° 0 mm 4 mps 748 mmHg 65%
    18:00 +17°C° 0 mm 3 mps 748 mmHg 71%
    19:00 +16°C° 0 mm 3 mps 748 mmHg 76%
    20:00 +14°C° 0 mm 3 mps 748 mmHg 77%
    21:00 +14°C° 0 mm 3 mps 748 mmHg 77%
    22:00 +13°C° 0 mm 3 mps 748 mmHg 78%
    23:00 +13°C° 0 mm 3 mps 747 mmHg 80%
    Show more